Weather History for Bishop, CA

Change the Weather History Date:

Thursday, August 8, 2013

  Actual Average Record
Temperature  
Mean Temperature 71 °F 76 °F  
Max Temperature 91 °F 98 °F 107 °F (1981)
Min Temperature 50 °F 55 °F 45 °F (1948)
Degree Days  
Heating Degree Days 0 0  
Month to date heating degree days 0 0  
Since 1 June heating degree days 0 20  
Since 1 July heating degree days 0 1  
Cooling Degree Days 6 11  
Month to date cooling degree days 70 95  
Year to date cooling degree days 941 759  
Since 1 June cooling degree days 855 691  
Growing Degree Days 20 (Base 50)    
Moisture  
Dew Point 26 °F    
Average Humidity 28    
Maximum Humidity 48    
Minimum Humidity 7    
Precipitation  
Precipitation 0.00 in 0.00 in 0.17 in (1983)
Month to date precipitation 0.00 0.03  
Year to date precipitation 0.95 3.27  
Snow  
Snow 0.00 in 0.00 in - ()
Month to date snowfall 0.0 0.0  
Since 1 June snowfall 0.0 0.0  
Since 1 July snowfall 0.0 0.0  
Snow Depth 0.00 in    
Sea Level Pressure  
Sea Level Pressure 29.79 in    
Wind  
Wind Speed 9 mph (South)    
Max Wind Speed 23 mph    
Max Gust Speed 35 mph    
Visibility 10 miles    
Events      
T = Trace of Precipitation, MM = Missing Value Source: NWS Daily Summary

Daily Weather History Graph

Daily Weather History Graph

Search for Another Location

Airport:

Trip Planner

Search our weather history database for the weather conditions in past years. The results will help you decide how hot, cold, wet, or windy it might be!

Date:

Astronomy

Aug. 08, 2013 Rise Set
Actual Time 6:03 AM PDT 7:53 PM PDT
Civil Twilight 5:35 AM PDT 8:21 PM PDT
Nautical Twilight 5:01 AM PDT 8:55 PM PDT
Astronomical Twilight 4:24 AM PDT 9:32 PM PDT
Moon 7:51 AM PDT (8/8) 8:38 PM PDT (8/8)
Length of Visible Light 14h 46m
Length of Day
13h 49m
Waxing Crescent, 3% of the Moon is Illuminated
Aug 8
Waxing Crescent
Aug 14
First Quarter
Aug 20
Full
Aug 28
Last Quarter
Sep 5
New

Hourly Weather History & Observations

Time (PDT) Temp. Dew Point Humidity Pressure Visibility Wind Dir Wind Speed Gust Speed Precip Events Conditions
12:56 AM 63.0 °F 32.0 °F 31% 29.83 in 10.0 mi Calm Calm - N/A   Clear
1:56 AM 60.1 °F 33.1 °F 36% 29.83 in 10.0 mi WSW 4.6 mph - N/A   Clear
2:56 AM 61.0 °F 32.0 °F 34% 29.83 in 10.0 mi NNW 3.5 mph - N/A   Clear
3:56 AM 57.0 °F 32.0 °F 39% 29.83 in 10.0 mi Calm Calm - N/A   Clear
4:56 AM 54.0 °F 32.0 °F 43% 29.83 in 10.0 mi Calm Calm - N/A   Clear
5:56 AM 52.0 °F 32.0 °F 47% 29.85 in 10.0 mi North 4.6 mph - N/A   Clear
6:56 AM 57.0 °F 34.0 °F 42% 29.86 in 10.0 mi Calm Calm - N/A   Clear
7:56 AM 66.0 °F 35.1 °F 32% 29.86 in 10.0 mi Calm Calm - N/A   Clear
8:56 AM 73.9 °F 34.0 °F 23% 29.85 in 10.0 mi Calm Calm - N/A   Clear
9:56 AM 77.0 °F 32.0 °F 19% 29.84 in 10.0 mi Calm Calm - N/A   Clear
10:56 AM 81.0 °F 34.0 °F 18% 29.83 in 10.0 mi Variable 6.9 mph - N/A   Clear
11:56 AM 84.0 °F 30.0 °F 14% 29.81 in 10.0 mi South 10.4 mph 16.1 mph N/A   Clear
12:56 PM 88.0 °F 24.1 °F 10% 29.78 in 10.0 mi South 16.1 mph 26.5 mph N/A   Clear
1:56 PM 89.1 °F 21.0 °F 8% 29.77 in 10.0 mi South 15.0 mph 24.2 mph N/A   Clear
2:56 PM 90.0 °F 18.0 °F 7% 29.75 in 10.0 mi South 18.4 mph 25.3 mph N/A   Clear
3:56 PM 90.0 °F 18.0 °F 7% 29.74 in 10.0 mi SSE 19.6 mph 34.5 mph N/A   Clear
4:56 PM 89.1 °F 18.0 °F 7% 29.73 in 10.0 mi South 17.3 mph 26.5 mph N/A   Clear
5:56 PM 88.0 °F 17.1 °F 7% 29.73 in 10.0 mi South 19.6 mph 26.5 mph N/A   Clear
6:56 PM 84.9 °F 16.0 °F 8% 29.72 in 10.0 mi SSE 18.4 mph 25.3 mph N/A   Clear
7:56 PM 79.0 °F 17.1 °F 10% 29.73 in 10.0 mi SE 15.0 mph - N/A   Clear
8:56 PM 78.1 °F 16.0 °F 10% 29.73 in 10.0 mi SSE 16.1 mph 23.0 mph N/A   Clear
9:56 PM 75.9 °F 19.0 °F 12% 29.76 in 10.0 mi SSE 13.8 mph - N/A   Clear
10:56 PM 73.9 °F 23.0 °F 15% 29.78 in 10.0 mi SSE 9.2 mph - N/A   Clear
11:56 PM 69.1 °F 24.1 °F 18% 29.79 in 10.0 mi SSW 9.2 mph - N/A   Clear